Weather History for Gunnison, CO

Change the Weather History Date:

Monday, December 10, 2012

  Actual Average Record
Temperature  
Mean Temperature -2 °F -  
Max Temperature 12 °F 25 °F 44 °F (2010)
Min Temperature -16 °F 1 °F -23 °F (2013)
Degree Days  
Heating Degree Days 67    
Moisture  
Dew Point -7 °F    
Average Humidity 71    
Maximum Humidity 100    
Minimum Humidity 29    
Precipitation  
Precipitation 0.00 in - - ()
Sea Level Pressure  
Sea Level Pressure 30.07 in    
Wind  
Wind Speed 3 mph (NE)    
Max Wind Speed 7 mph    
Max Gust Speed -    
Visibility 7 miles    
Events      
Averages and records for this station are not official NWS values.
T = Trace of Precipitation, MM = Missing Value Source: NWS Daily Summary

Daily Weather History Graph

Daily Weather History Graph

Search for Another Location

Airport:

Trip Planner

Search our weather history database for the weather conditions in past years. The results will help you decide how hot, cold, wet, or windy it might be!

Date:

Astronomy

Dec. 10, 2012 Rise Set
Actual Time 7:14 AM MST 4:46 PM MST
Civil Twilight 6:45 AM MST 5:16 PM MST
Nautical Twilight 6:11 AM MST 5:49 PM MST
Astronomical Twilight 5:39 AM MST 6:21 PM MST
Moon 4:02 AM MST (12/10) 2:37 PM MST (12/10)
Length of Visible Light 10h 31m
Length of Day
9h 31m
Waning Crescent, 10% of the Moon is Illuminated
Dec 10
Waning Crescent
Dec 13
New
Dec 19
First Quarter
Dec 28
Full
Jan 4
Last Quarter

Hourly Weather History & Observations

Time (MST) Temp. Windchill Dew Point Humidity Pressure Visibility Wind Dir Wind Speed Gust Speed Precip Events Conditions
12:15 AM -9.4 °F -18.6 °F -9.4 °F 100% 30.17 in 10.0 mi NE 3.5 mph - N/A   Clear
12:35 AM -11.2 °F -20.6 °F -11.2 °F 100% 30.17 in 10.0 mi ENE 3.5 mph - N/A   Clear
12:55 AM -13.0 °F -28.6 °F -23.8 °F 59% 30.17 in 10.0 mi ENE 6.9 mph - N/A   Clear
1:15 AM -13.0 °F -27.0 °F -22.0 °F 64% 30.17 in 10.0 mi NE 5.8 mph - N/A   Clear
1:55 AM -11.2 °F -26.4 °F -16.6 °F 77% 30.16 in 10.0 mi NE 6.9 mph - N/A   Clear
2:15 AM -14.8 °F -29.1 °F -20.2 °F 77% 30.17 in 10.0 mi ENE 5.8 mph - N/A   Clear
2:35 AM -13.0 °F -27.0 °F -18.4 °F 77% 30.17 in 10.0 mi ENE 5.8 mph - N/A   Clear
2:55 AM -11.2 °F - -13.0 °F 92% 30.17 in 10.0 mi Calm Calm - N/A   Clear
3:15 AM -14.8 °F - -16.6 °F 92% 30.16 in 10.0 mi Calm Calm - N/A   Clear
3:35 AM -16.6 °F -29.3 °F - N/A% 30.14 in 4.0 mi NE 4.6 mph - N/A   Mostly Cloudy
3:55 AM -13.0 °F -28.6 °F - N/A% 30.14 in 10.0 mi NE 6.9 mph - N/A   Overcast
4:15 AM -11.2 °F - - N/A% 30.14 in 10.0 mi Calm Calm - N/A   Overcast
4:35 AM -9.4 °F -20.9 °F -25.6 °F 45% 30.14 in 10.0 mi NNE 4.6 mph - N/A   Overcast
4:55 AM -11.2 °F - -27.4 °F 45% 30.14 in 10.0 mi Calm Calm - N/A   Overcast
5:15 AM -9.4 °F -20.9 °F -25.6 °F 45% 30.15 in 10.0 mi North 4.6 mph - N/A   Overcast
5:35 AM -7.6 °F -16.5 °F -20.2 °F 54% 30.15 in 10.0 mi ENE 3.5 mph - N/A   Overcast
6:15 AM -7.6 °F -20.6 °F -23.8 °F 45% 30.15 in 10.0 mi East 5.8 mph - N/A   Overcast
6:35 AM -7.6 °F -18.8 °F -18.4 °F 59% 30.15 in 10.0 mi NE 4.6 mph - N/A   Mostly Cloudy
6:55 AM -9.4 °F -20.9 °F -29.2 °F 37% 30.15 in 10.0 mi East 4.6 mph - N/A   Scattered Clouds
7:15 AM -7.6 °F -18.8 °F -18.4 °F 59% 30.15 in 10.0 mi NE 4.6 mph - N/A   Overcast
7:35 AM -7.6 °F -22.1 °F -23.8 °F 45% 30.15 in 10.0 mi NE 6.9 mph - N/A   Overcast
7:55 AM -7.6 °F -20.6 °F -23.8 °F 45% 30.15 in 10.0 mi ENE 5.8 mph - N/A   Mostly Cloudy
8:15 AM -5.8 °F -19.9 °F -7.6 °F 92% 30.14 in 10.0 mi East 6.9 mph - N/A   Scattered Clouds
8:35 AM -5.8 °F - -23.8 °F 42% 30.13 in 10.0 mi Calm Calm - N/A   Mostly Cloudy
8:55 AM -4.0 °F -16.3 °F -29.2 °F 29% 30.12 in 10.0 mi NE 5.8 mph - N/A   Overcast
9:35 AM -0.4 °F -12.0 °F -16.6 °F 46% 30.11 in 10.0 mi NE 5.8 mph - N/A   Overcast
9:55 AM 1.4 °F -8.3 °F -11.2 °F 56% 30.11 in 10.0 mi East 4.6 mph - N/A   Overcast
10:15 AM 1.4 °F -6.2 °F -16.6 °F 43% 30.11 in 10.0 mi SSE 3.5 mph - N/A   Overcast
10:35 AM 3.2 °F - - N/A% 30.11 in 10.0 mi Calm Calm - N/A   Overcast
10:55 AM 5.0 °F - -5.8 °F 61% 30.10 in 10.0 mi Calm Calm - N/A   Overcast
11:15 AM 6.8 °F - -5.8 °F 56% 30.09 in 10.0 mi Calm Calm - N/A   Overcast
11:35 AM 6.8 °F - -4.0 °F 61% 30.07 in 5.0 mi Calm Calm - N/A   Overcast
11:55 AM 8.6 °F - -0.4 °F 67% 30.07 in 2.0 mi Calm Calm - N/A   Overcast
12:15 PM 8.6 °F - -2.2 °F 62% 30.06 in 0.8 mi Calm Calm - N/A   Overcast
12:35 PM 8.6 °F - 1.4 °F 73% 30.07 in 1.2 mi Calm Calm - N/A   Overcast
12:55 PM 8.6 °F 0.1 °F -0.4 °F 67% 30.05 in 0.8 mi West 4.6 mph - N/A   Overcast
1:15 PM 8.6 °F 2.0 °F 1.4 °F 73% 30.04 in 0.8 mi WSW 3.5 mph - N/A   Overcast
1:35 PM 8.6 °F - 3.2 °F 79% 30.03 in 0.8 mi Calm Calm - N/A   Overcast
1:55 PM 10.4 °F 4.0 °F 3.2 °F 73% 30.02 in 1.5 mi South 3.5 mph - N/A   Overcast
2:15 PM 10.4 °F 4.0 °F 3.2 °F 73% 30.02 in 2.0 mi South 3.5 mph - N/A   Overcast
2:35 PM 10.4 °F - 3.2 °F 73% 30.01 in 5.0 mi Calm Calm - N/A   Overcast
2:55 PM 10.4 °F - 5.0 °F 79% 30.00 in 4.0 mi Calm Calm - N/A   Overcast
3:15 PM 10.4 °F 4.0 °F 6.8 °F 85% 30.00 in 7.0 mi WNW 3.5 mph - N/A   Mostly Cloudy
3:35 PM 10.4 °F - 5.0 °F 79% 30.00 in 10.0 mi Calm Calm - N/A   Mostly Cloudy
3:55 PM 10.4 °F - 3.2 °F 73% 30.00 in 4.0 mi Calm Calm - N/A   Mostly Cloudy
4:15 PM 12.2 °F - 6.8 °F 79% 29.99 in 5.0 mi Calm Calm - N/A   Mostly Cloudy
4:35 PM 10.4 °F - 3.2 °F 73% 29.99 in 10.0 mi Calm Calm - N/A   Overcast
4:55 PM 10.4 °F - 6.8 °F 85% 29.99 in 10.0 mi Calm Calm - N/A   Overcast
5:15 PM 10.4 °F - 1.4 °F 67% 29.99 in 10.0 mi Calm Calm - N/A   Overcast
5:35 PM 8.6 °F - 6.8 °F 92% 29.98 in 10.0 mi Calm Calm - N/A   Overcast
5:55 PM 8.6 °F - 5.0 °F 85% 29.98 in 4.0 mi Calm Calm - N/A   Overcast
6:15 PM 10.4 °F - 1.4 °F 67% 29.99 in 1.2 mi Calm Calm - N/A   Overcast
6:35 PM 10.4 °F -0.4 °F 8.6 °F 92% 30.00 in 1.0 mi North 6.9 mph - N/A   Overcast
6:55 PM 10.4 °F - 6.8 °F 85% 29.99 in 1.0 mi Calm Calm - N/A   Overcast
7:15 PM 8.6 °F 2.0 °F 3.2 °F 79% 29.99 in 5.0 mi South 3.5 mph - N/A   Mostly Cloudy
7:55 PM 8.6 °F - 5.0 °F 85% 30.00 in 10.0 mi Calm Calm - N/A   Overcast
8:15 PM 6.8 °F - 1.4 °F 79% 30.00 in 3.0 mi Calm Calm - N/A   Overcast
8:35 PM 5.0 °F -4.1 °F 1.4 °F 85% 29.99 in 3.0 mi South 4.6 mph - N/A   Mostly Cloudy
8:55 PM 6.8 °F -0.1 °F 5.0 °F 92% 29.99 in 5.0 mi SW 3.5 mph - N/A   Scattered Clouds
9:15 PM 6.8 °F - 1.4 °F 79% 29.99 in 8.0 mi Calm Calm - N/A   Partly Cloudy
9:35 PM 1.4 °F - -2.2 °F 85% 30.00 in 10.0 mi Calm Calm - N/A   Mostly Cloudy
9:55 PM 3.2 °F -6.2 °F - N/A% 30.01 in 10.0 mi NE 4.6 mph - N/A   Mostly Cloudy
10:15 PM 5.0 °F - -2.2 °F 72% 30.01 in 8.0 mi Calm Calm - N/A   Overcast
10:35 PM 6.8 °F -2.0 °F 1.4 °F 79% 30.01 in 6.0 mi NW 4.6 mph - N/A   Mostly Cloudy
10:55 PM 6.8 °F -4.8 °F 3.2 °F 85% 30.01 in 8.0 mi North 6.9 mph - N/A   Mostly Cloudy
11:15 PM 3.2 °F - -4.0 °F 72% 30.01 in 10.0 mi Calm Calm - N/A   Scattered Clouds
11:35 PM 3.2 °F - 1.4 °F 92% 30.01 in 9.0 mi Calm Calm - N/A   Partly Cloudy
11:55 PM 5.0 °F - 3.2 °F 92% 30.01 in 8.0 mi Calm Calm - N/A   Mostly Cloudy